{"data":{"norad_id":55341,"epoch":"2026-09-20T08:54:01.081440Z","epoch_age_seconds":107776,"freshness":"FRESH","line1":"1 55341U 23013L   26263.37084585 -.00000489  00000+0 -82373-5 0  9996","line2":"2 55341  43.0034 284.2732 0001100 294.5371  65.5366 15.27574463201441","mean_motion":15.27574463,"eccentricity":0.00011,"inclination_deg":43.0034,"raan_deg":284.2732,"arg_perigee_deg":294.5371,"mean_anomaly_deg":65.5366,"bstar":-8.2373e-6,"rev_number":20144,"period_min":94.267090402388,"perigee_km":482.31094356532,"apogee_km":483.820408154,"semimajor_km":6861.2026758597,"source":"CELESTRAK","updated_at":"2026-09-21T09:00:33.180154Z"}}